Regional Weather Roundup
Issued by NWS

Home | Current Version | Previous Version | Text Only | Print | Product List | Glossary On
Versions: 1 2 3 4 5 6 7 8 9 10 11 12 13 14 15 16 17 18 19 20 21 22 23 24 25 26 27 28 29 30 31 32 33 34 35 36 37 38 39 40 41 42 43 44 45 46 47 48 49 50
000
ASUS44 KOUN 180610
RWROK

WEATHER ROUNDUP FOR OKLAHOMA
NATIONAL WEATHER SERVICE NORMAN OK
1200 AM CST THU JAN 18 2018

NOTE: "FAIR" INDICATES FEW OR NO CLOUDS BELOW 12,000 FEET WITH NO
      SIGNIFICANT WEATHER AND/OR OBSTRUCTIONS TO VISIBILITY.

OKZ001>007-009>012-014-015-017-180700-
NORTHWEST OKLAHOMA AND THE PANHANDLE

CITY           SKY/WX    TMP DP  RH WIND       PRES   REMARKS
GAGE           CLOUDY    26   1  34 S17       30.34F WCI  13
6HR MIN TEMP:  25; 6HR MAX TEMP:  35;

GUYMON         CLOUDY    24  12  60 SW8       30.27F WCI  15
ENID/WOODRING  CLOUDY    18   9  68 N7        30.43F WCI   8
$$

OKZ016-021>023-033>039-044-045-180700-
SOUTHWEST OKLAHOMA

CITY           SKY/WX    TMP DP  RH WIND       PRES   REMARKS
LAWTON/REGL    CLOUDY    15   8  73 SE3       30.52F
6HR MIN TEMP:  15; 6HR MAX TEMP:  29;

LAWTON/FT SILL CLOUDY    24   6  47 S13       30.49F WCI  12
FREDERICK      CLOUDY    20   4  50 S8        30.47F WCI  10
CLINTON        CLEAR     21   0  39 S16       30.43F WCI   7
HOBART         CLOUDY    23   2  40 S15       30.47S WCI  10
ALTUS AFB      CLOUDY    16  -3  42 SE6       30.49S WCI   8
$$

OKZ018>020-024>031-180700-
CENTRAL OKLAHOMA

CITY           SKY/WX    TMP DP  RH WIND       PRES   REMARKS
OKLAHOMA CITY  CLOUDY    19   6  57 S12       30.48F WCI   7
6HR MIN TEMP:  16; 6HR MAX TEMP:  26;

OKC/WILEY POST CLOUDY    25   4  40 S14       30.47F WCI  13
OKC/TINKER AFB CLOUDY    21   4  48 S14       30.48F WCI   8
STILLWATER     CLOUDY    20   5  52 S9        30.48F WCI   9
GUTHRIE        CLOUDY    23   5  46 S9        30.47F WCI  13
$$

OKZ008-013-054>072-180700-
NORTHEAST OKLAHOMA

CITY           SKY/WX    TMP DP  RH WIND       PRES   REMARKS
TULSA          CLOUDY    23   8  52 S7        30.53S WCI  15
6HR MIN TEMP:  21; 6HR MAX TEMP:  28;

TULSA/JONES    CLOUDY    19   9  65 S6        30.54F WCI  11
PONCA CITY     CLEAR     23   5  46 S7        30.46F WCI  15
BARTLESVILLE   CLOUDY    11   6  81 CALM      30.52F
MUSKOGEE       CLOUDY    16   9  74 S7        30.57F WCI   6
$$

OKZ032-040>043-046>053-073>077-180700-
SOUTH CENTRAL/SOUTHEAST OKLAHOMA

CITY           SKY/WX    TMP DP  RH WIND       PRES   REMARKS
ARDMORE/DWNTWN CLOUDY    21   5  49 CALM      30.57S
MCALESTER      CLEAR     17   8  67 SW3       30.57S
$$





USA.gov is the U.S. government's official web portal to all federal, state and local government web resources and services.